Location: Bonnesvalyn
(49.1218°N, 3.3177°E)
Time: 23:03:21
(UTC+00:00)

Lacrosse 5 - Pass Details

Date: 09 February 2023
Orbit: 714 x 724 km, 57.0° (Epoch: 09 March)

Event Time Altitude Azimuth Distance (km) Brightness Sun altitude
Rises 20:00:14 0° 292° (WNW) 3,143 6.3 -30.3°
Reaches altitude 10° 20:02:49 10° 301° (WNW) 2,221 5.2 -30.7°
Enters shadow 20:06:18 31° 339° (NNW) 1,259 3.3 -31.3°
